Lid_Strength_Index
6 6 5 5 4 4 3 3 2 2 4 5 4 4 4 3 2 3 3 2 1 1 1 1 0 0 1 1 1 1 0 0 1
6 6 5 5 4 3 3 3 2 4 5 5 5 4 4 3 2 1 3 2 2 1 1 1 1 0 0 1 1 0 0 1 1
7 5 5 5 4 4 3 2 3 3 4 3 3 3 3 3 3 2 1 1 1 1 1 1 1 1 1 1 1 2 1 1 0
6 6 5 5 4 3 3 2 2 2 2 3 3 3 3 3 3 2 2 1 1 1 1 1 1 1 2 2 2 2 2 1 1
6 5 5 4 4 4 3 4 3 2 2 2 2 2 2 2 2 2 1 1 1 1 1 1 2 1 2 2 2 2 1 1 1
6 5 5 5 5 5 4 3 4 3 2 2 2 1 1 2 2 1 1 1 1 1 1 1 1 2 2 2 2 2 2 1 1
6 6 5 5 5 5 5 4 4 4 3 2 2 1 2 2 1 1 1 1 0 0 0 1 1 1 1 1 2 2 2 1 1
6 6 6 5 5 4 4 3 3 3 2 3 2 2 2 2 1 1 1 1 1 1 1 1 0 1 1 1 1 1 1 1 1
10 9 9 8 7 7 7 6 5 4 4 2 2 3 2 1 1 1 1 1 1 1 1 1 1 1 1 1 2 2 1 1 1
8 7 7 7 7 6 5 5 4 4 3 3 2 2 2 2 2 2 1 1 1 1 1 1 1 1 1 1 1 2 3 2 1
7 6 6 5 5 5 5 4 3 3 2 3 2 2 2 1 2 2 1 2 2 2 1 1 1 1 1 1 1 1 2 2 1
6 5 5 5 4 3 3 3 2 2 3 2 2 2 2 2 1 2 2 2 2 2 1 2 1 1 1 1 1 2 3 2 1
5 4 4 3 3 3 3 3 2 3 3 3 3 2 2 1 1 2 2 2 2 1 1 2 1 1 1 1 1 2 3 3 1
5 4 3 3 3 3 3 3 3 3 3 4 3 2 2 1 1 1 1 2 1 1 2 1 2 2 1 1 1 1 4 4 1
5 4 4 3 3 3 2 2 2 3 3 3 2 3 2 2 1 1 1 2 2 2 2 2 2 2 2 1 1 3 3 4 4
5 4 3 3 3 3 3 2 3 5 5 4 4 5 5 5 3 2 1 2 2 2 2 3 3 3 3 2 1 1 4 4 4
4 3 3 3 4 4 5 5 4 5 5 6 6 6 5 5 5 5 3 1 2 2 3 3 3 3 3 3 2 2 1 1 1
4 3 4 4 5 5 5 4 4 4 5 6 6 5 5 6 6 6 6 5 4 2 2 2 3 3 2 3 3 2 3 3 1
4 5 5 5 5 5 5 4 5 4 4 4 5 6 6 6 6 6 6 6 5 4 5 6 7 7 5 2 4 7 8 9 9
5 6 6 7 6 6 6 5 5 4 4 4 5 5 5 6 6 6 6 6 7 6 4 6 8 8 8 9 7 7 9 10 10